Hourly Weather Roundup
Issued by NWS

Home | Current Version | Previous Version | Text Only | Print | Product List | Glossary On
Versions: 1 2 3 4 5 6 7 8 9 10 11 12 13 14 15 16 17 18 19 20 21 22 23 24 25 26 27 28 29 30 31 32 33 34 35 36 37 38 39 40 41 42 43 44 45 46 47 48 49 50
000
NZUS43 KILX 031310
HWRCRS

CRS HOURLY WEATHER ROUNDUP
NATIONAL WEATHER SERVICE, LINCOLN IL
800 AM CDT MON AUG 03 2015


CITY           SKY/WX    TMP DP  RH WIND       PRES   REMARKS
CHAMPAIGN      SUNNY     73  69  87 W6        29.84S
LAWRENCEVILLE  SUNNY     78  71  79 W8        29.86S HX  80
PEORIA         SUNNY     74  64  71 NW3       29.86R
SPRINGFIELD    SUNNY     71  66  84 W7        29.87R
$$


CITY           SKY/WX    TMP DP  RH WIND       PRES   REMARKS
BLOOMINGTON    SUNNY     74  67  78 NW9       29.86R
DECATUR        SUNNY     76  67  73 CALM      29.84F
EFFINGHAM      SUNNY     76  64  68 W7        29.88S
FLORA          SUNNY     79  67  67 W8        29.87S HX  81
GALESBURG      SUNNY     69  63  80 N7        29.88R
JACKSONVILLE   MOSUNNY   73  66  78 W5        29.88S
LACON          SUNNY     71  64  79 N7        29.84R
LINCOLN        SUNNY     75  65  71 W6        29.85S
LITCHFIELD     MOSUNNY   74  63  66 W3        29.88S

CITY           SKY/WX    TMP DP  RH WIND       PRES   REMARKS
MACOMB         SUNNY     69  65  84 NW6       29.90R
MATTOON        SUNNY     76  66  71 W8        29.85R
MOLINE         SUNNY     71  60  68 N9        29.87R
OLNEY          MOSUNNY   75  70  83 W8        29.87S
PARIS          SUNNY     75  71  85 W8        29.85S
PONTIAC        SUNNY     73  69  86 NW3       29.85R
QUINCY         SUNNY     71  63  75 NW5       29.90R
RANTOUL        SUNNY     76  70  81 W6        29.83S
ROBINSON       SUNNY     76  70  80 W7        29.86S
TAYLORVILLE    SUNNY     72  64  78 W7        29.87R
TERRE HAUTE    SUNNY     77  70  79 W7        29.85R
$$


CITY           SKY/WX    TMP DP  RH WIND       PRES   REMARKS
BURLINGTON     SUNNY     70  63  78 N8        29.89R
CHICAGO        MOSUNNY   71  60  68 NW13      29.83R
DES MOINES     MOSUNNY   71  58  63 N3        29.94R
EVANSVILLE     SUNNY     79  70  74 W10       29.88R HX  82
INDIANAPOLIS   MOSUNNY   75  67  76 S12       29.83R
KANSAS CITY    PTSUNNY   73  66  78 CALM      29.94R
MILWAUKEE      MOSUNNY   69  53  56 NW9       29.83R
ST LOUIS       MOSUNNY   80  64  58 W7        29.91R HX  82
$$




USA.gov is the U.S. government's official web portal to all federal, state and local government web resources and services.